Adler, Russia

12:09 PM MSK on September 24, 2017 (GMT +0300)
Sochi

Weather History for URSS - February, 2013

Change the Weather History Date:

Sunday, February 10, 2013

  Actual Average Record
Temperature  
Mean Temperature 54 °F -  
Max Temperature 61 °F - - ()
Min Temperature 46 °F - - ()
Degree Days  
Heating Degree Days 12    
Growing Degree Days 4 (Base 50)    
Moisture  
Dew Point 39 °F    
Average Humidity 57    
Maximum Humidity 71    
Minimum Humidity 36    
Precipitation  
Precipitation 0.00 in - - ()
Sea Level Pressure  
Sea Level Pressure 30.01 in    
Wind  
Wind Speed 5 mph ()    
Max Wind Speed 13 mph    
Max Gust Speed -    
Visibility 5.8 miles    
Events      
T = Trace of Precipitation, MM = Missing Value Source: Averaged Metar Reports

Daily Weather History Graph

Daily Weather History Graph

Search for Another Location

Airport or City:

Trip Planner

Search our weather history database for the weather conditions in past years. The results will help you decide how hot, cold, wet, or windy it might be!

Date:

Astronomy

Feb. 10, 2013 Rise Set
Actual Time 8:25 AM MSK 6:44 PM MSK
Civil Twilight 7:55 AM MSK 7:13 PM MSK
Nautical Twilight 7:22 AM MSK 7:47 PM MSK
Astronomical Twilight 6:49 AM MSK 8:20 PM MSK
Moon 8:00 AM MSK (2/10) 7:13 PM MSK (2/10)
Length of Visible Light 11h 17m
Length of Day
10h 18m
New Moon, 0% of the Moon is Illuminated
Feb 10
New Moon
Feb 18
First Quarter
Feb 26
Full
Mar 5
Last Quarter
Mar 11
New

Hourly Weather History & Observations

Time (MSK) Temp. Dew Point Humidity Pressure Visibility Wind Dir Wind Speed Gust Speed Precip Events Conditions
12:00 AM 51.8 °F 42.8 °F 71% 30.06 in 6.2 mi SW 2.2 mph - N/A   Overcast
12:30 AM 53.6 °F 41.0 °F 62% 30.06 in 5.6 mi NNW 6.7 mph - N/A   Overcast
1:00 AM 53 °F 44 °F 64% 30.09 in 2 mi NW 2.2 mph - -   Overcast
1:00 AM 53.6 °F 41.0 °F 62% 30.06 in 6.2 mi NNW 4.5 mph - N/A   Overcast
1:30 AM 51.8 °F 41.0 °F 67% 30.06 in 5.6 mi NE 4.5 mph - N/A   Mostly Cloudy
2:00 AM 51.8 °F 39.2 °F 62% 30.06 in 6.2 mi NNW 4.5 mph - N/A   Scattered Clouds
2:30 AM 53.6 °F 35.6 °F 51% 30.04 in 6.2 mi North 2.2 mph - N/A   Mostly Cloudy
3:00 AM 50.0 °F 37.4 °F 62% 30.04 in 6.2 mi East 4.5 mph - N/A   Mostly Cloudy
3:30 AM 48.2 °F 37.4 °F 66% 30.04 in 6.2 mi East 4.5 mph - N/A   Mostly Cloudy
4:00 AM 47 °F 38 °F 63% 30.05 in 2 mi East 2.2 mph - -   Mostly Cloudy
4:00 AM 48.2 °F 37.4 °F 66% 30.04 in 6.2 mi ENE 2.2 mph - N/A   Mostly Cloudy
4:30 AM 48.2 °F 37.4 °F 66% 30.04 in 6.2 mi ENE 4.5 mph - N/A   Mostly Cloudy
5:00 AM 50.0 °F 37.4 °F 62% 30.04 in 6.2 mi ENE 13.4 mph - N/A   Overcast
5:30 AM 50.0 °F 37.4 °F 62% 30.04 in 6.2 mi WNW 4.5 mph - N/A   Overcast
6:00 AM 51.8 °F 39.2 °F 62% 30.04 in 6.2 mi NW 2.2 mph - N/A   Overcast
6:30 AM 50.0 °F 39.2 °F 66% 30.04 in 6.2 mi East 4.5 mph - N/A   Overcast
7:00 AM 49 °F 42 °F 69% 30.05 in 2 mi East 4.5 mph - -   Overcast
7:00 AM 50.0 °F 37.4 °F 62% 30.04 in 6.2 mi ENE 4.5 mph - N/A   Overcast
7:30 AM 50.0 °F 37.4 °F 62% 30.04 in 6.2 mi ENE 4.5 mph - N/A   Overcast
8:00 AM 51.8 °F 35.6 °F 54% 30.04 in 6.2 mi East 11.2 mph - N/A   Overcast
8:30 AM 51.8 °F 35.6 °F 54% 30.04 in 6.2 mi NE 6.7 mph - N/A   Overcast
9:00 AM 51.8 °F 35.6 °F 54% 30.04 in 6.2 mi NE 8.9 mph - N/A   Overcast
9:30 AM 53.6 °F 35.6 °F 51% 30.04 in 6.2 mi NE 6.7 mph - N/A   Overcast
10:00 AM 53 °F 36 °F 42% 30.06 in 12 mi East 8.9 mph - -   Overcast
10:00 AM 55.4 °F 37.4 °F 51% 30.04 in 6.2 mi ENE 6.7 mph - N/A   Overcast
10:30 AM 57.2 °F 35.6 °F 44% 30.04 in 6.2 mi NE 4.5 mph - N/A   Overcast
11:00 AM 60.8 °F 33.8 °F 36% 30.04 in 6.2 mi SSE 6.7 mph - N/A   Overcast
11:30 AM 59.0 °F 39.2 °F 48% 30.04 in 6.2 mi SSE 6.7 mph - N/A   Overcast
12:00 PM 59.0 °F 39.2 °F 48% 30.01 in 6.2 mi SSE 6.7 mph - N/A   Overcast
12:30 PM 59.0 °F 39.2 °F 48% 30.01 in 6.2 mi SE 8.9 mph - N/A   Overcast
1:00 PM 58 °F 42 °F 44% 30.03 in 12 mi South 6.7 mph - -   Overcast
1:00 PM 57.2 °F 41.0 °F 55% 30.01 in 6.2 mi South 8.9 mph - N/A   Overcast
1:30 PM 59.0 °F 41.0 °F 51% 30.01 in 6.2 mi SSE 8.9 mph - N/A   Overcast
2:00 PM 57.2 °F 42.8 °F 59% 30.01 in 6.2 mi SSE 8.9 mph - N/A   Overcast
2:30 PM 59.0 °F 39.2 °F 48% 30.01 in 6.2 mi SE 6.7 mph - N/A   Overcast
3:00 PM 59.0 °F 41.0 °F 51% 29.98 in 6.2 mi SSE 6.7 mph - N/A   Overcast
3:30 PM 59.0 °F 42.8 °F 55% 29.98 in 6.2 mi SSW 6.7 mph - N/A   Overcast
4:00 PM 57 °F 45 °F 53% 29.99 in 12 mi SSW 2.2 mph - -   Overcast
4:00 PM 59.0 °F 42.8 °F 55% 29.98 in 6.2 mi South 6.7 mph - N/A   Overcast
4:30 PM 59.0 °F 41.0 °F 51% 29.98 in 6.2 mi South 6.7 mph - N/A   Overcast
5:00 PM 57.2 °F 41.0 °F 55% 29.98 in 6.2 mi South 6.7 mph - N/A   Overcast
5:30 PM 57.2 °F 41.0 °F 55% 29.98 in 6.2 mi WSW 2.2 mph - N/A   Overcast
6:00 PM 55.4 °F 41.0 °F 58% 29.95 in 6.2 mi Calm Calm - N/A   Mostly Cloudy
6:30 PM 55.4 °F 39.2 °F 54% 29.95 in 6.2 mi Calm Calm - N/A   Mostly Cloudy
7:00 PM 55 °F 45 °F 59% 29.96 in 2 mi NNW 2.2 mph - -   Mist
7:00 PM 53.6 °F 41.0 °F 62% 29.95 in 1.9 mi Calm Calm - N/A   Mostly Cloudy
7:30 PM 51.8 °F 39.2 °F 62% 29.95 in 3.1 mi ENE 4.5 mph - N/A   Mostly Cloudy
8:00 PM 50.0 °F 39.2 °F 66% 29.95 in 3.1 mi ENE 6.7 mph - N/A   Mostly Cloudy
8:30 PM 50.0 °F 37.4 °F 62% 29.95 in 4.3 mi ENE 6.7 mph - N/A   Scattered Clouds
9:00 PM 50.0 °F 37.4 °F 62% 29.92 in 5.0 mi ENE 6.7 mph - N/A   Scattered Clouds
9:30 PM 50.0 °F 37.4 °F 62% 29.92 in 6.2 mi NE 8.9 mph - N/A   Scattered Clouds
10:00 PM 49 °F 38 °F 56% 29.92 in 2 mi SE 2.2 mph - -   Clear
10:00 PM 48.2 °F 35.6 °F 62% 29.92 in 6.2 mi Calm Calm - N/A   Scattered Clouds
10:30 PM 48.2 °F 35.6 °F 62% 29.89 in 5.0 mi ENE 2.2 mph - N/A   Scattered Clouds
11:00 PM 50.0 °F 37.4 °F 62% 29.89 in 6.2 mi East 8.9 mph - N/A   Scattered Clouds
11:30 PM 50.0 °F 35.6 °F 58% 29.89 in 6.2 mi ENE 6.7 mph - N/A   Scattered Clouds